When you browse on this site, cookies collect data to enhance your experience and personalize the content and advertising you see.
Visit our Privacy Policy to learn more. By continuing to use the site, you agree to this use of cookies and data.
  • In France
  • List of Countries
  • For 7 days
  • Water Temperature
  • Satellite Maps
  • Weather Map
  • Weather Widgets
  • user-avatar
    Login

    Hourly Weather Smolan

    Today, 20 July, Saturday

    Time Temperature Precipitation Wind Pressure Humidity
    00:00 +13°C° 0 mm 1 mps 657 mmHg 81%
    01:00 +12°C° 0 mm 1 mps 657 mmHg 82%
    02:00 +12°C° 0 mm 1 mps 657 mmHg 82%
    03:00 +12°C° 0 mm 1 mps 657 mmHg 82%
    04:00 +12°C° 0 mm 1 mps 657 mmHg 82%
    05:00 +12°C° 0 mm 1 mps 657 mmHg 83%
    06:00 +14°C° 0 mm 1 mps 658 mmHg 75%
    07:00 +16°C° 0 mm 1 mps 658 mmHg 68%
    08:00 +20°C° 0 mm 1 mps 659 mmHg 61%
    09:00 +21°C° 0 mm 1 mps 660 mmHg 53%
    10:00 +21°C° 0 mm 2 mps 660 mmHg 45%
    11:00 +24°C° 0 mm 2 mps 661 mmHg 37%
    12:00 +24°C° 0 mm 2 mps 661 mmHg 38%
    13:00 +24°C° 0 mm 2 mps 660 mmHg 39%
    14:00 +24°C° 0 mm 2 mps 660 mmHg 40%
    15:00 +24°C° 0.1 mm 2 mps 660 mmHg 44%
    16:00 +23°C° 0.1 mm 1 mps 660 mmHg 48%
    17:00 +23°C° 0.1 mm 1 mps 659 mmHg 53%
    18:00 +21°C° 0.1 mm 1 mps 659 mmHg 59%
    19:00 +19°C° 0.1 mm 1 mps 658 mmHg 65%
    20:00 +15°C° 0.1 mm 1 mps 658 mmHg 72%
    21:00 +15°C° 0 mm 1 mps 658 mmHg 73%
    22:00 +14°C° 0 mm 1 mps 658 mmHg 73%
    23:00 +14°C° 0 mm 1 mps 659 mmHg 74%

    Tomorrow, 21 July, Sunday

    Time Temperature Precipitation Wind Pressure Humidity
    00:00 +13°C° 0 mm 1 mps 658 mmHg 75%
    01:00 +13°C° 0 mm 1 mps 658 mmHg 75%
    02:00 +13°C° 0 mm 1 mps 658 mmHg 76%
    03:00 +13°C° 0 mm 1 mps 658 mmHg 76%
    04:00 +13°C° 0 mm 1 mps 658 mmHg 75%
    05:00 +13°C° 0 mm 1 mps 658 mmHg 75%
    06:00 +15°C° 0 mm 1 mps 659 mmHg 70%
    07:00 +18°C° 0 mm 1 mps 660 mmHg 64%
    08:00 +19°C° 0 mm 0 mps 660 mmHg 59%
    09:00 +22°C° 0 mm 1 mps 661 mmHg 53%
    10:00 +24°C° 0 mm 1 mps 661 mmHg 48%
    11:00 +25°C° 0 mm 2 mps 662 mmHg 42%
    12:00 +25°C° 0 mm 2 mps 662 mmHg 42%
    13:00 +25°C° 0 mm 2 mps 661 mmHg 43%
    14:00 +25°C° 0 mm 3 mps 661 mmHg 43%
    15:00 +25°C° 0 mm 3 mps 661 mmHg 45%
    16:00 +25°C° 0 mm 2 mps 661 mmHg 47%
    17:00 +24°C° 0 mm 2 mps 660 mmHg 49%
    18:00 +21°C° 0 mm 2 mps 660 mmHg 56%
    19:00 +20°C° 0 mm 1 mps 659 mmHg 63%
    20:00 +18°C° 0 mm 1 mps 658 mmHg 70%
    21:00 +16°C° 0 mm 1 mps 659 mmHg 70%
    22:00 +16°C° 0 mm 1 mps 659 mmHg 70%
    23:00 +15°C° 0 mm 1 mps 659 mmHg 70%

    Day after tomorrow, 22 July, Monday

    Time Temperature Precipitation Wind Pressure Humidity
    00:00 +15°C° 0 mm 1 mps 659 mmHg 71%
    01:00 +15°C° 0 mm 1 mps 659 mmHg 73%
    02:00 +14°C° 0 mm 1 mps 658 mmHg 74%
    03:00 +14°C° 0 mm 1 mps 658 mmHg 76%
    04:00 +14°C° 0 mm 1 mps 658 mmHg 78%
    05:00 +14°C° 0 mm 1 mps 658 mmHg 80%
    06:00 +18°C° 0 mm 1 mps 659 mmHg 73%
    07:00 +19°C° 0 mm 2 mps 660 mmHg 66%
    08:00 +21°C° 0 mm 2 mps 660 mmHg 59%
    09:00 +23°C° 0 mm 2 mps 661 mmHg 54%
    10:00 +25°C° 0 mm 2 mps 661 mmHg 50%
    11:00 +26°C° 0 mm 2 mps 661 mmHg 45%
    12:00 +26°C° 0 mm 2 mps 661 mmHg 46%
    13:00 +26°C° 0 mm 2 mps 661 mmHg 46%
    14:00 +26°C° 0 mm 2 mps 660 mmHg 47%
    15:00 +26°C° 0 mm 2 mps 660 mmHg 48%
    16:00 +26°C° 0 mm 2 mps 660 mmHg 50%
    17:00 +26°C° 0 mm 2 mps 659 mmHg 51%
    18:00 +23°C° 0 mm 2 mps 659 mmHg 59%
    19:00 +20°C° 0 mm 2 mps 658 mmHg 66%
    20:00 +19°C° 0 mm 1 mps 657 mmHg 74%
    21:00 +19°C° 0 mm 1 mps 657 mmHg 74%
    22:00 +18°C° 0 mm 1 mps 657 mmHg 74%
    23:00 +18°C° 0 mm 1 mps 657 mmHg 74%

    23 July, Tuesday

    Time Temperature Precipitation Wind Pressure Humidity
    00:00 +16°C° 0 mm 2 mps 657 mmHg 75%
    01:00 +16°C° 0 mm 2 mps 657 mmHg 77%
    02:00 +16°C° 0 mm 2 mps 657 mmHg 78%
    03:00 +16°C° 0 mm 2 mps 656 mmHg 81%
    04:00 +15°C° 0 mm 2 mps 656 mmHg 83%
    05:00 +15°C° 0 mm 2 mps 656 mmHg 86%
    06:00 +17°C° 0 mm 2 mps 656 mmHg 79%
    07:00 +19°C° 0 mm 2 mps 657 mmHg 72%
    08:00 +20°C° 0 mm 2 mps 658 mmHg 65%
    09:00 +23°C° 0 mm 2 mps 658 mmHg 60%
    10:00 +24°C° 0 mm 2 mps 658 mmHg 55%
    11:00 +25°C° 0 mm 2 mps 659 mmHg 51%
    12:00 +25°C° 0.4 mm 2 mps 658 mmHg 53%
    13:00 +24°C° 0.4 mm 2 mps 658 mmHg 56%
    14:00 +24°C° 0.4 mm 2 mps 657 mmHg 58%
    15:00 +22°C° 0.2 mm 3 mps 657 mmHg 60%
    16:00 +21°C° 0.2 mm 3 mps 657 mmHg 61%
    17:00 +21°C° 0.2 mm 3 mps 657 mmHg 62%
    18:00 +19°C° 0.1 mm 3 mps 657 mmHg 71%
    19:00 +17°C° 0.1 mm 2 mps 656 mmHg 81%
    20:00 +15°C° 0.1 mm 2 mps 656 mmHg 90%
    21:00 +15°C° 0 mm 1 mps 656 mmHg 91%
    22:00 +15°C° 0 mm 1 mps 656 mmHg 91%
    23:00 +14°C° 0 mm 1 mps 656 mmHg 91%

    24 July, Wednesday

    Time Temperature Precipitation Wind Pressure Humidity
    00:00 +14°C° 0 mm 1 mps 656 mmHg 91%
    01:00 +13°C° 0 mm 1 mps 656 mmHg 92%
    02:00 +12°C° 0 mm 1 mps 656 mmHg 93%
    03:00 +12°C° 0 mm 1 mps 656 mmHg 93%
    04:00 +12°C° 0 mm 1 mps 656 mmHg 93%
    05:00 +11°C° 0 mm 1 mps 655 mmHg 93%
    06:00 +13°C° 0 mm 1 mps 656 mmHg 85%
    07:00 +15°C° 0 mm 1 mps 657 mmHg 76%
    08:00 +17°C° 0 mm 2 mps 658 mmHg 68%
    09:00 +18°C° 0 mm 2 mps 658 mmHg 61%
    10:00 +20°C° 0 mm 2 mps 659 mmHg 54%
    11:00 +21°C° 0 mm 2 mps 659 mmHg 47%
    12:00 +23°C° 0 mm 2 mps 659 mmHg 47%
    13:00 +23°C° 0 mm 2 mps 659 mmHg 47%
    14:00 +22°C° 0 mm 3 mps 659 mmHg 46%
    15:00 +21°C° 0 mm 2 mps 658 mmHg 49%
    16:00 +21°C° 0 mm 2 mps 658 mmHg 52%
    17:00 +21°C° 0 mm 2 mps 658 mmHg 54%
    18:00 +19°C° 0 mm 2 mps 657 mmHg 62%
    19:00 +18°C° 0 mm 1 mps 657 mmHg 70%
    20:00 +15°C° 0 mm 1 mps 656 mmHg 78%
    21:00 +14°C° 0 mm 1 mps 656 mmHg 80%
    22:00 +14°C° 0 mm 1 mps 657 mmHg 82%
    23:00 +13°C° 0 mm 1 mps 657 mmHg 84%

    25 July, Thursday

    Time Temperature Precipitation Wind Pressure Humidity
    00:00 +13°C° 0 mm 1 mps 657 mmHg 84%
    01:00 +13°C° 0 mm 1 mps 657 mmHg 85%
    02:00 +12°C° 0 mm 1 mps 657 mmHg 85%
    03:00 +12°C° 0 mm 1 mps 657 mmHg 85%
    04:00 +12°C° 0 mm 1 mps 657 mmHg 85%
    05:00 +12°C° 0 mm 1 mps 657 mmHg 85%
    06:00 +14°C° 0 mm 2 mps 658 mmHg 77%
    07:00 +17°C° 0 mm 2 mps 658 mmHg 68%
    08:00 +19°C° 0 mm 2 mps 659 mmHg 60%
    09:00 +20°C° 0 mm 2 mps 660 mmHg 55%
    10:00 +23°C° 0 mm 2 mps 660 mmHg 50%
    11:00 +24°C° 0 mm 2 mps 660 mmHg 45%
    12:00 +24°C° 0 mm 2 mps 660 mmHg 45%
    13:00 +25°C° 0 mm 3 mps 660 mmHg 45%
    14:00 +25°C° 0 mm 3 mps 660 mmHg 46%
    15:00 +24°C° 0 mm 3 mps 660 mmHg 48%
    16:00 +24°C° 0 mm 2 mps 659 mmHg 50%
    17:00 +24°C° 0 mm 2 mps 659 mmHg 52%
    18:00 +20°C° 0 mm 2 mps 658 mmHg 61%
    19:00 +19°C° 0 mm 1 mps 658 mmHg 70%
    20:00 +16°C° 0 mm 1 mps 657 mmHg 78%
    21:00 +16°C° 0 mm 1 mps 657 mmHg 78%
    22:00 +15°C° 0 mm 1 mps 657 mmHg 79%
    23:00 +15°C° 0 mm 1 mps 657 mmHg 79%
    Show more